Volver al catálogo

STARLINK-38102

ActivoComunicacionesVLEO
NORAD 100023·PAYLOAD·🇺🇸 United States

Lanzado Jul 14, 2026 desde Vandenberg Space Force Base

Loading…

Próximos Pases (próximas 24 horas)

TLE

ActualizadoSource: Space-Track

Época: Sep 14, 2026, 14:35 UTC

1 A0023U 26160Y   26257.60765691  .00158733  00000-0  93411-3 0  9990
2 A0023  70.0035 211.6127 0003005 270.7548  89.3308 15.77601275 11063

Sigue STARLINK-38102 en tiempo real con AllMySat

Download on the App Store